This is the latest recevied weather packets stored in our database for station/object M3YFM-13. If no packets are shown the sender has not sent any weather packets the latest 1 day(s).
| Time | Temp. | Humidity | Pressure | Rain* | Wind** | Luminosity | Snow |
|---|---|---|---|---|---|---|---|
| 1778042966 | 8.33° C | 73% | - | 0 mm | 0.89 m/s, 114° | - | - |
| 1778042666 | 8.89° C | 73% | - | 0 mm | 1.79 m/s, 101° | - | - |
| 1778042366 | 8.89° C | 74% | - | 0 mm | 0.45 m/s, 97° | - | - |
| 1778042065 | 8.89° C | 74% | - | 0 mm | 1.34 m/s, 128° | - | - |
| 1778041765 | 8.89° C | 73% | - | 0 mm | 0.89 m/s, 82° | - | - |
| 1778041465 | 8.89° C | 73% | - | 0 mm | 0.45 m/s, 136° | - | - |
| 1778041164 | 8.89° C | 72% | - | 0 mm | 0.89 m/s, 101° | - | - |
| 1778040864 | 8.89° C | 72% | - | 0 mm | 0.45 m/s, 134° | - | - |
| 1778040564 | 8.89° C | 72% | - | 0 mm | 0.45 m/s, 103° | - | - |
| 1778040264 | 8.89° C | 72% | - | 0 mm | 0.89 m/s, 104° | - | - |
| 1778039963 | 8.89° C | 71% | - | 0 mm | 0.89 m/s, 128° | - | - |
| 1778039663 | 8.89° C | 71% | - | 0 mm | 1.34 m/s, 115° | - | - |
| 1778039363 | 8.89° C | 71% | - | 0 mm | 1.34 m/s, 111° | - | - |
| 1778039062 | 8.89° C | 72% | - | 0 mm | 1.79 m/s, 79° | - | - |
| 1778038762 | 8.89° C | 72% | - | 0 mm | 1.79 m/s, 59° | - | - |
| 1778038462 | 8.89° C | 74% | - | 0 mm | 0.45 m/s, 84° | - | - |
| 1778038162 | 8.89° C | 74% | - | 0 mm | 0.45 m/s, 101° | - | - |
| 1778037861 | 8.89° C | 75% | - | 0 mm | 1.34 m/s, 89° | - | - |
| 1778037561 | 8.89° C | 74% | - | 0 mm | 1.79 m/s, 96° | - | - |
| 1778037261 | 8.89° C | 74% | - | 0 mm | 1.34 m/s, 120° | - | - |
| 1778036960 | 8.89° C | 75% | - | 0 mm | 1.34 m/s, 86° | - | - |
| 1778036660 | 8.89° C | 74% | - | 0 mm | 1.79 m/s, 94° | - | - |
| 1778036360 | 8.89° C | 73% | - | 0 mm | 0.89 m/s, 110° | - | - |
| 1778036060 | 8.89° C | 73% | - | 0 mm | 1.34 m/s, 82° | - | - |
| 1778035759 | 8.89° C | 72% | - | 0 mm | 0.89 m/s, 98° | - | - |
* Rain since midnight (hover to see other rain measurements)
** Current wind speed in m/s (hover to see current wind gust speed)